Theta_e
344 345 344 342 336 333 332 331 332 334 336 339 341 343 343 343 335 331 334 333 333 334 334 336 338 338 338 340 337 328 328 332 337 329 334 337 330 329 338 339 330 323 318
343 345 344 343 340 333 332 332 333 334 333 333 332 332 332 331 334 337 334 331 333 334 335 335 338 338 339 332 332 323 326 336 331 340 339 338 322 320 333 327 320 321 320
343 345 345 343 342 336 333 332 333 334 336 337 338 337 337 337 340 341 334 332 332 329 331 334 336 337 331 328 324 339 335 337 339 334 335 336 321 324 327 339 319 338 325
342 344 345 343 342 339 333 333 333 333 335 336 338 338 338 339 339 335 334 334 340 334 334 336 334 328 327 326 335 336 334 336 334 336 336 330 328 323 327 331 320 333 338
341 343 345 344 342 341 337 334 333 333 334 335 338 339 338 337 338 338 338 340 339 339 334 336 337 328 328 337 335 330 326 330 332 329 333 331 329 324 326 320 328 326 332
340 342 342 344 343 342 341 336 334 334 335 338 340 338 338 338 339 339 338 338 338 336 336 337 329 334 331 332 338 340 336 336 335 332 335 332 331 325 324 334 321 330 330
337 341 341 341 342 342 342 341 340 336 338 341 341 339 337 338 338 339 340 339 340 340 338 337 330 329 331 339 342 343 343 343 340 338 338 335 334 328 324 324 322 322 325
337 339 341 343 341 341 342 342 343 342 342 342 342 341 339 336 337 337 340 341 340 340 340 331 332 332 333 339 341 341 341 341 339 338 339 337 331 329 325 327 328 323 323
338 337 339 340 340 340 340 342 341 342 342 342 342 341 340 338 337 337 336 338 339 339 339 339 332 334 332 337 339 340 340 340 340 339 339 340 338 328 330 326 325 325 323
338 338 338 339 335 340 339 340 341 340 341 341 340 340 340 338 337 338 335 335 337 338 339 339 338 334 334 333 335 339 339 340 341 341 340 341 339 336 327 329 329 326 328
340 339 340 340 336 335 337 339 340 340 340 341 341 338 338 338 338 338 335 335 335 337 338 340 340 338 333 333 332 339 338 339 341 342 340 342 341 340 333 327 328 327 325
342 342 342 343 340 339 336 337 339 340 341 341 341 336 336 337 338 337 336 336 336 336 338 339 339 340 339 332 332 333 338 339 343 342 343 342 343 344 342 336 328 328 327
347 345 345 344 338 339 339 336 337 338 338 337 337 337 337 337 338 336 337 340 340 338 339 340 340 338 342 338 332 331 337 340 343 344 343 343 344 343 342 341 337 332 330
348 347 343 343 341 339 339 338 337 338 338 336 336 336 341 338 337 337 339 341 339 337 338 338 339 339 338 341 337 334 332 339 340 342 343 343 342 344 344 343 342 339 336
348 347 343 337 337 337 339 341 337 334 336 337 335 338 335 338 339 339 342 341 339 336 335 338 340 340 339 338 340 335 335 334 335 339 342 343 343 343 343 343 343 342 340
349 347 345 340 338 337 339 338 340 336 336 338 341 337 336 337 338 343 341 340 338 338 342 342 341 339 338 342 341 339 340 342 339 338 340 344 342 343 343 343 343 341 342
344 339 343 339 340 337 338 340 339 337 340 342 343 339 338 341 340 340 340 340 336 340 340 340 338 338 338 338 337 341 344 343 344 340 339 342 342 343 343 342 342 340 341
335 341 337 335 337 343 341 341 345 344 342 343 343 342 341 341 340 341 339 339 341 341 339 338 341 339 339 340 339 338 339 341 342 343 342 343 342 341 343 342 341 341 341
336 338 336 336 339 345 343 343 344 344 344 343 342 340 342 342 338 341 339 339 341 339 337 337 338 337 340 339 338 338 340 342 343 342 343 342 342 342 344 343 344 341 341
335 336 335 339 344 343 343 339 338 339 341 343 343 343 343 339 340 342 340 339 339 337 336 336 337 338 340 341 341 337 338 343 342 343 343 342 342 343 343 342 343 343 344
335 335 336 341 344 343 335 333 336 339 340 344 344 343 341 342 343 342 341 341 339 338 337 338 338 340 341 342 342 341 343 343 343 342 342 341 341 341 343 343 341 341 341
335 335 335 338 340 338 332 332 333 335 340 343 343 343 343 342 341 341 340 338 338 339 337 337 339 342 342 343 343 341 340 340 340 340 340 340 343 343 342 343 342 341 341
337 336 336 338 339 336 332 335 333 334 337 341 342 341 341 341 340 340 340 339 338 338 338 340 343 342 342 342 340 339 339 339 341 341 340 339 339 339 341 343 342 342 341
339 336 336 337 338 335 332 338 340 338 337 337 340 340 340 341 342 342 342 342 343 343 343 343 343 342 342 341 341 341 341 341 341 341 342 342 342 342 343 342 342 341 341
342 337 338 336 338 338 334 335 341 340 338 338 338 337 338 338 335 335 340 341 341 341 340 342 341 340 341 341 342 341 340 341 341 342 340 340 340 341 342 342 341 337 339
347 341 338 340 340 340 338 335 340 337 336 333 337 336 335 335 338 337 339 340 339 339 339 339 339 338 338 338 339 340 340 340 340 341 341 340 339 339 340 339 341 340 340
Wind_Speed
15 17 17 16 15 15 16 18 19 18 16 16 16 16 14 11 9 9 9 10 10 10 10 9 8 9 10 11 9 8 12 14 14 15 17 15 13 12 14 14 15 13 13
17 17 17 17 16 15 16 16 18 18 16 15 15 14 13 11 11 9 10 11 10 9 9 9 9 9 10 9 9 11 15 16 15 15 14 14 12 13 14 13 12 14 15
16 17 17 16 17 16 17 17 16 16 16 15 14 14 13 12 12 12 11 12 11 10 11 11 11 10 10 10 12 14 15 16 15 14 14 13 13 12 13 12 13 14 14
17 17 17 16 16 16 17 17 16 15 15 14 14 12 12 11 10 10 10 11 11 11 12 12 11 10 12 13 15 15 14 15 14 13 13 13 11 11 13 11 13 14 14
17 16 16 16 15 16 16 17 17 16 15 14 14 12 11 11 12 10 11 10 11 11 12 12 10 11 14 15 16 16 17 16 15 14 12 11 10 11 11 10 11 12 12
15 15 15 15 14 15 15 16 17 16 14 13 12 12 12 13 12 9 10 9 9 9 9 11 10 12 16 16 17 16 16 15 14 14 12 11 9 8 9 10 9 9 10
14 14 14 14 13 13 15 15 15 15 15 14 13 12 12 12 10 8 9 8 8 9 10 10 11 13 17 17 16 13 12 13 11 10 10 10 8 7 8 8 7 8 8
14 15 14 14 13 13 14 15 14 14 15 14 14 13 12 11 9 8 8 8 8 8 10 10 13 13 15 16 15 13 11 10 10 10 8 8 7 7 6 6 6 7 7
15 14 15 16 15 14 14 14 15 14 15 15 14 13 11 11 9 8 8 8 8 8 9 11 12 14 14 15 13 12 11 10 10 8 6 6 6 6 5 5 5 5 5
16 14 14 15 15 16 15 14 14 15 15 14 13 13 13 12 11 10 9 9 9 8 8 10 12 13 15 14 13 12 11 9 8 4 6 5 5 4 4 4 4 5 5
16 15 13 11 12 12 14 14 14 14 14 14 13 12 13 14 12 11 10 9 10 9 8 8 11 13 14 14 14 14 12 9 7 6 6 5 4 2 2 4 5 5 5
18 17 14 10 6 11 15 16 15 15 15 15 14 14 14 14 13 12 11 11 10 9 8 8 9 11 13 14 16 16 14 13 9 8 5 4 4 2 2 3 4 6 6
17 14 12 12 11 6 15 18 18 17 17 16 15 14 15 15 15 14 13 12 11 10 10 10 10 9 12 14 15 17 16 16 13 12 8 5 5 6 4 4 4 5 7
14 10 10 15 20 17 15 21 17 16 15 15 16 17 17 17 16 15 14 12 10 10 10 8 8 8 9 13 15 16 18 17 15 14 11 8 5 9 7 6 6 6 8
14 12 12 12 20 15 15 18 18 18 16 14 15 16 16 18 18 17 15 14 9 10 10 8 7 6 8 10 14 15 16 17 18 17 16 11 8 7 7 8 8 7 10
13 10 12 12 12 7 15 11 26 21 22 19 17 18 17 18 18 17 17 16 13 12 11 9 8 7 6 8 11 14 15 15 16 17 17 14 11 9 10 10 11 8 7
9 10 10 8 2 9 17 5 16 24 24 23 18 20 24 20 21 16 15 16 17 14 13 12 10 9 9 9 12 17 16 17 18 17 17 16 15 15 13 11 11 10 7
8 9 8 10 7 4 11 10 9 14 21 22 24 25 24 22 20 18 16 14 16 16 15 14 13 12 14 17 16 17 18 20 20 18 17 17 17 15 15 12 12 11 10
3 8 8 11 10 8 8 9 11 15 19 18 19 26 28 25 19 17 16 15 16 16 16 15 15 16 15 14 17 17 17 18 19 20 20 20 18 18 16 15 17 16 14
4 8 10 11 10 9 5 4 6 9 14 15 18 20 17 17 17 15 15 16 17 18 18 17 17 18 18 15 16 19 17 16 18 22 22 22 21 20 18 18 18 19 18
7 8 11 10 8 6 2 1 4 6 4 9 11 13 16 19 18 16 16 17 20 21 19 18 18 21 16 13 11 13 13 14 17 19 19 19 18 19 21 19 19 20 21
11 10 12 12 10 9 5 2 5 9 6 6 7 8 15 18 12 13 15 18 22 24 20 19 19 15 15 13 11 11 8 12 16 17 19 19 17 17 17 19 18 18 18
13 10 11 12 12 12 6 1 5 7 8 3 7 5 5 10 10 10 11 11 11 17 19 19 18 15 14 12 13 11 6 7 9 7 8 10 13 15 17 16 16 15 16
14 14 13 13 13 11 8 3 1 5 5 3 4 4 6 6 6 7 8 8 8 9 12 11 12 13 13 16 15 15 14 10 7 6 3 2 3 5 9 12 14 14 12
15 14 12 12 12 12 10 8 1 4 4 4 4 6 6 6 6 7 10 10 10 10 12 14 15 15 17 16 17 16 16 17 18 13 8 6 4 3 4 6 7 6 6
14 15 15 14 13 12 12 11 8 5 6 5 8 7 7 7 7 7 8 8 9 10 13 13 14 15 15 15 16 15 16 17 18 19 15 9 6 3 3 2 2 5 7
Wind_Direction
160 162 162 161 157 154 147 146 147 147 149 147 152 158 157 158 154 149 142 136 135 141 140 135 134 134 125 132 133 126 131 121 121 116 115 116 117 116 114 113 119 119 118
162 162 160 160 162 156 155 152 144 143 145 144 147 149 157 158 153 147 142 140 139 140 143 136 130 131 131 138 132 126 123 129 124 119 119 118 103 122 129 121 117 117 120
167 163 160 160 164 162 162 161 156 151 148 147 149 153 157 158 150 149 152 148 144 141 138 136 133 135 141 133 126 122 115 119 116 116 120 121 106 118 119 119 124 119 119
168 165 166 163 166 166 166 167 164 162 157 152 152 152 151 153 155 157 153 154 146 140 141 141 141 142 142 133 132 133 134 127 123 121 118 118 107 117 117 122 128 130 126
170 168 168 169 170 171 171 172 172 171 168 164 166 168 167 168 151 153 158 158 152 145 145 143 151 151 145 143 139 137 133 132 122 119 118 114 108 114 125 122 129 134 133
175 171 171 178 176 174 174 177 178 176 171 172 178 172 164 156 154 143 146 150 152 149 145 156 154 152 151 149 145 143 136 133 125 122 115 115 105 107 128 133 130 136 143
172 180 178 179 185 183 182 186 185 182 179 179 183 183 179 181 185 177 167 164 155 158 158 153 155 157 155 155 152 149 146 156 138 129 123 115 117 115 123 126 134 141 143
175 176 182 182 184 192 192 193 196 192 188 186 187 191 189 187 188 184 180 186 179 166 163 159 159 162 166 165 161 153 147 145 144 141 132 117 112 123 131 133 136 143 154
186 182 186 186 187 191 198 202 202 206 201 194 191 195 198 193 193 197 190 187 186 185 175 162 169 169 176 177 176 177 161 151 146 149 141 129 112 116 144 157 157 157 161
192 192 196 198 198 193 196 203 210 207 210 206 199 194 198 204 195 197 192 189 187 186 185 182 174 181 183 192 189 184 180 173 170 173 173 146 127 111 140 174 181 177 179
198 201 205 211 225 225 207 200 205 212 210 210 205 204 198 205 201 200 195 191 193 191 192 195 183 187 189 193 195 196 198 194 180 168 178 171 165 130 139 184 196 196 200
204 205 210 211 228 265 227 212 202 209 212 213 212 210 207 203 204 203 200 196 196 193 189 192 193 192 197 198 197 203 204 199 192 180 183 206 211 211 217 194 206 209 212
212 217 223 219 222 305 240 226 211 206 218 216 219 216 212 205 202 205 201 197 199 203 200 197 200 196 197 207 201 205 207 208 208 205 210 220 235 233 223 219 220 235 228
218 227 226 251 245 266 252 226 221 216 214 222 225 224 220 218 207 200 198 193 207 212 214 210 206 209 200 204 208 207 210 215 219 221 217 233 272 240 246 249 236 233 246
224 227 246 256 299 271 243 219 216 216 218 215 228 232 234 228 221 214 212 204 208 213 206 206 216 236 224 215 212 214 215 220 225 226 227 232 248 234 242 250 250 255 248
225 247 258 280 319 160 146 226 218 220 218 219 229 223 235 232 237 225 217 217 216 204 206 210 207 216 222 225 213 217 216 221 229 230 226 233 246 241 246 259 247 252 262
246 251 244 256 342 173 161 189 202 226 225 228 240 226 221 228 231 227 233 234 217 210 215 215 216 229 242 239 237 236 230 239 233 230 232 240 243 251 250 255 247 258 272
260 217 215 224 220 150 209 245 252 243 233 238 238 228 222 225 232 227 230 215 205 216 225 233 237 246 256 262 255 241 242 238 235 232 240 243 241 249 246 250 250 259 260
262 211 218 194 191 191 201 232 251 255 258 252 240 222 233 229 221 220 224 222 220 230 235 235 240 254 260 263 247 241 242 245 240 243 245 247 247 247 246 253 256 257 257
225 209 205 193 180 176 215 282 278 269 255 244 235 229 237 209 214 224 228 231 233 234 237 242 253 259 261 259 254 231 243 247 245 245 247 247 248 253 255 254 253 258 258
247 216 202 204 186 182 204 41 12 12 262 215 209 213 210 205 210 233 243 242 238 239 242 244 251 257 252 249 226 225 239 241 240 238 242 245 249 254 250 250 256 259 260
239 228 204 196 196 197 173 100 36 41 56 177 177 210 231 224 233 237 247 254 246 239 240 242 250 247 251 233 226 230 227 235 238 243 246 247 250 246 246 246 251 262 260
236 230 220 211 200 201 185 147 44 29 51 113 174 182 205 208 231 242 244 243 228 225 237 242 238 235 237 233 226 228 215 223 215 233 239 244 248 247 244 243 247 255 258
233 224 214 213 213 209 207 202 29 29 10 63 149 181 173 204 214 221 228 229 222 230 234 242 241 241 238 239 237 233 236 239 204 201 204 207 193 232 234 235 244 254 256
241 227 214 216 212 212 214 207 146 27 5 290 230 203 220 221 239 250 256 251 247 245 249 246 250 256 249 247 244 246 244 241 237 229 226 221 252 249 234 215 215 202 235
246 223 212 211 214 219 221 217 219 219 193 226 252 238 229 231 235 266 272 259 248 250 250 249 249 249 245 245 248 247 247 244 241 231 224 209 198 154 214 232 205 244 207